{"data":{"norad_id":58055,"intl_designator":"2023-158E","name":"STARLINK-30544","alt_names":[],"object_type":"PAYLOAD","status":"ACTIVE","operator":null,"country":"US","launch_date":"2023-10-13","launch_site_code":"AFETR","launch_vehicle":null,"mission":null,"orbit_class":"UNKNOWN","rcs_meters":null,"size_class":null,"mass_kg":null,"dimensions":null,"purposes":["comms"],"wikipedia_slug":null,"has_3d_model":false,"image_url":null,"decayed_at":null,"tle_current":{"epoch":"2026-05-25T04:35:57.723648Z","epoch_age_seconds":54640,"freshness":"FRESH","line1":"1 58055U 23158E   26145.19164032 -.00000556  00000+0 -10686-4 0  9998","line2":"2 58055  42.9953 314.6979 0000468  62.0294 298.0605 15.27573405145275","mean_motion":15.27573405,"eccentricity":4.68e-5,"inclination_deg":42.9953,"raan_deg":314.6979,"arg_perigee_deg":62.0294,"mean_anomaly_deg":298.0605,"bstar":-1.0686e-5,"rev_number":14527,"period_min":94.267155691939,"perigee_km":482.74773947974,"apogee_km":483.38994834673,"semimajor_km":6861.2058439132,"source":"CELESTRAK","updated_at":"2026-05-25T13:38:18.499464Z"}}}